Regional Weather Roundup
Issued by NWS Spokane, WA

Home | Current Version | Previous Version | Text Only | Print | Product List | Glossary On
Versions: 1 2 3 4 5 6 7 8 9 10 11 12 13 14 15 16 17 18 19 20 21 22 23 24 25 26 27 28 29 30 31 32 33 34 35 36 37 38 39 40 41 42 43 44 45 46 47 48 49 50
811
NZUS01 KOTX 281725
RWROTX

Eastern Washington/Northern Idaho Roundup
National Weather Service, Spokane WA
1000 AM PDT SUN AUG 28 2016

Note: "fair" indicated few or no clouds below 12,000 feet with no
significant weather and/or obstructions to visibility.

...Northeast Washington and Northern Idaho Panhandle...

CITY           SKY/WX    TMP DP  RH WIND       PRES   REMARKS
Spokane Intl   PTSUNNY   66  43  43 S5        30.06R
Spokane Downto SUNNY     68  43  40 VRB6      30.06R
Coeur d Alene  MOSUNNY   70  45  40 SE14      30.05R
Deer Park      SUNNY     64  43  46 S7        30.06R
Sandpoint      SUNNY     68  43  40 S7        30.06R
Bonners Ferry    N/A     68  45  42 SW8       30.04S

...Southeast Washington and southern Idaho Panhandle...

CITY           SKY/WX    TMP DP  RH WIND       PRES   REMARKS
Walla Walla    MOSUNNY   76  44  32 SW10      30.04R
Pullman/Moscow MOSUNNY   68  46  45 SW5       30.11R
Lewiston       PTSUNNY   74  49  41 NW5       30.04R
Lowell           N/A     71  50  47 CALM      30.05S
Grangeville    FAIR      72  36  26 W10G17    30.11R

...Columbia Basin...

CITY           SKY/WX    TMP DP  RH WIND       PRES   REMARKS
Ephrata        PTSUNNY   74  42  31 S6        30.02R
Moses Lake     PTSUNNY   72  42  34 VRB3      30.03R
Pasco          MOSUNNY   74  47  38 CALM      30.03R
Richland       MOSUNNY   77  51  41 NE3       30.02S
Hermiston      SUNNY     78  48  34 W7        30.01S
Pendleton      SUNNY     73  50  44 VRB3      30.05S

...East Slopes Cascades...

CITY           SKY/WX    TMP DP  RH WIND       PRES   REMARKS
The Dalles     SUNNY     74  52  46 NW8       30.01S
Yakima         PTSUNNY   73  43  33 CALM      30.04R
Ellensburg     CLOUDY    69  45  41 W5        30.05R
Stampede Pass  CLOUDY    54  39  57 CALM      30.13R
Wenatchee      CLOUDY    69  42  37 NW6       30.03R
Omak           MOSUNNY   72  43  35 N6        30.01S
Chelan           N/A     66  43  42 MISG        N/A
Sunnyside        N/A     72  44  37 CALM      30.02S

...Southern British Columbia...

CITY           SKY/WX    TMP DP  RH WIND       PRES   REMARKS
Penticton      MOSUNNY   72  52  49 N8        30.00S
Castlegar      PTSUNNY   70  48  46 N7        30.01S
Cranbrook      MOSUNNY   59  50  72 NE5       30.05R
Osoyoos          N/A     72  48  43 N1          N/A
Creston          N/A     68  52  56 W3          N/A

...Western Montana...

CITY           SKY/WX    TMP DP  RH WIND       PRES   REMARKS
Kalispell      SUNNY     73  39  29 VRB7G17   30.03R
Libby            N/A     72  37  28 W5        30.04R
Missoula       MOSUNNY   72  43  35 NW9       30.08R

...Neighboring Cities...

CITY           SKY/WX    TMP DP  RH WIND       PRES   REMARKS
Seattle        PTSUNNY   61  50  67 S7        30.10R
Portland       MOSUNNY   65  53  65 VRB3      30.07S
Boise          SUNNY     74  42  31 CALM      30.11R
Great Falls    MOSUNNY   73  40  30 N7        30.02R
Calgary        PTSUNNY   50  39  66 N15G21    30.11R



USA.gov is the U.S. government's official web portal to all federal, state and local government web resources and services.